Location: Stavanger
(58.9670°N, 5.7500°E)
Time: 07:45:28
(UTC+02:00)

ISS - Pass Details

Date: 01 April 2019
Orbit: 408 x 410 km, 51.6° (Epoch: 25 April)

Event Time Altitude Azimuth Distance (km) Brightness Sun altitude
Rises 21:44:27 0° 262° (W) 2,340 1.0 -11.2°
Reaches altitude 10° 21:47:00 10° 242° (WSW) 1,476 -0.5 -11.5°
Maximum altitude 21:49:17 18° 198° (SSW) 1,102 -1.8 -11.7°
Enters shadow 21:50:55 13° 163° (SSE) 1,305 -1.7 -11.9°
